Wind_Speed
28 31 33 35 37 39 42 45 48 50 50 50 51 52 53 53 54 54 55 56 56 56 56 56 56 57 57 57 57 57 56 56 56 56 56 56 56 55 56 56 56 56 56 56 56 55 54 54 54 54 53 53 53 53 54 53 53 52 52 52 52 51 51 51 50 50 50 49 49 49 50 50 50 50 51 51 51 51 51 52 52 52 52 52 51
26 29 31 33 35 37 40 42 45 48 50 51 51 51 52 53 54 54 55 56 56 56 56 57 57 57 57 57 57 58 57 57 57 57 57 57 57 57 57 58 58 58 58 58 57 57 56 56 55 55 55 55 55 54 54 54 54 54 54 54 54 53 53 52 52 51 51 51 51 51 52 52 52 52 52 52 52 53 53 53 53 54 54 53 52
23 26 29 31 33 36 38 40 42 45 48 50 51 51 52 53 54 55 55 56 57 57 57 57 57 57 58 58 58 58 58 58 58 59 59 58 58 59 59 59 59 59 59 59 59 58 58 58 57 57 57 57 56 56 56 56 56 56 56 56 55 55 55 54 54 53 53 53 53 53 53 53 53 53 53 53 53 53 54 54 54 55 55 54 53
21 23 26 28 31 33 36 38 40 42 45 48 50 52 52 52 53 54 55 56 56 57 58 58 58 58 58 58 59 59 59 59 60 60 60 60 60 60 60 60 61 60 60 60 60 60 60 59 59 59 59 58 58 58 58 58 58 58 58 58 57 57 57 56 56 55 55 55 55 55 54 54 53 53 53 52 52 53 54 54 54 55 55 55 54
19 21 23 25 28 30 33 35 38 40 42 44 47 50 52 53 53 54 55 56 56 57 58 58 59 59 59 60 60 59 59 60 60 61 61 61 61 62 62 62 62 62 61 61 61 61 61 61 60 60 60 60 59 59 59 60 60 60 60 60 59 59 59 58 58 57 57 56 56 56 55 54 54 54 53 53 53 54 54 54 54 55 55 55 55
16 19 21 23 25 27 30 32 35 37 39 41 44 47 50 52 53 54 54 55 56 57 58 58 59 60 60 61 61 61 61 61 61 61 62 62 62 63 63 63 63 63 63 62 62 62 61 61 61 62 61 61 61 61 61 61 61 61 61 61 61 61 60 60 60 59 58 58 57 56 56 55 55 54 54 54 55 55 56 56 56 56 56 56 56
13 16 18 21 22 24 26 28 31 33 36 38 41 43 46 49 51 53 54 55 56 57 58 58 59 59 60 61 61 62 62 62 62 62 62 62 63 64 64 64 64 64 64 63 63 62 62 62 62 63 63 63 63 63 63 63 63 63 63 63 62 62 62 61 61 61 60 59 58 57 57 56 56 56 56 57 57 58 58 58 58 58 57 57 56
12 13 15 18 20 22 23 25 27 30 32 35 37 40 42 45 48 51 53 55 56 57 57 58 59 59 60 60 61 62 62 63 63 63 63 63 64 64 65 65 65 65 65 64 64 63 63 63 63 63 64 64 64 64 64 64 64 64 64 64 64 63 63 63 63 62 61 60 59 58 58 58 58 58 59 59 59 59 59 58 58 58 57 57 56
12 13 14 15 18 20 22 23 25 27 29 31 33 35 38 41 44 47 50 52 55 56 57 58 59 59 60 60 61 61 62 62 63 63 64 64 65 65 66 66 66 66 66 65 65 65 65 64 64 65 65 65 65 66 65 65 65 65 65 65 65 65 64 64 64 64 62 61 60 60 60 59 60 60 60 60 60 60 59 59 59 58 58 58 57
14 14 14 14 16 18 20 21 23 25 27 28 30 32 34 37 40 43 46 48 51 54 56 58 59 59 60 61 61 61 62 62 63 63 64 65 65 66 66 67 67 67 67 67 67 66 66 66 66 66 67 67 67 67 67 67 67 67 67 66 66 66 66 66 66 65 64 62 62 62 61 61 62 62 62 61 61 61 61 60 60 60 59 59 59
15 15 15 15 16 17 18 19 21 23 25 26 28 30 31 33 35 38 41 44 47 49 52 55 57 59 60 60 61 62 63 63 63 63 64 64 65 66 67 67 67 68 68 68 68 68 67 67 67 68 68 69 69 70 70 69 69 69 68 68 68 67 68 68 68 67 65 64 64 64 64 63 64 64 63 62 62 62 62 62 61 61 61 60 60
16 16 16 17 17 17 18 19 20 21 22 24 26 28 29 30 32 34 36 39 42 45 48 50 53 56 58 60 61 62 63 64 64 64 65 65 65 66 66 67 68 68 69 69 69 69 68 68 68 69 70 70 71 72 72 71 71 71 70 69 69 69 69 69 69 68 67 67 66 66 66 65 65 65 64 64 63 63 63 63 62 62 61 61 60
16 16 17 18 18 18 18 19 19 20 21 22 24 26 27 28 30 31 33 35 38 41 44 47 49 52 54 57 59 61 62 63 64 65 66 66 66 66 67 67 68 69 69 70 70 70 70 69 69 70 70 70 71 72 73 73 73 72 72 71 70 70 70 70 70 70 69 69 69 68 68 67 66 66 66 65 65 64 63 63 62 62 61 60 60
16 17 17 18 19 19 19 20 20 20 21 21 22 24 25 27 28 30 31 32 34 37 39 42 45 48 50 53 55 58 60 62 64 65 65 66 67 68 68 68 68 69 70 70 71 71 71 71 70 70 70 70 70 71 72 73 73 74 73 73 72 72 72 71 71 71 71 71 71 70 70 69 68 67 67 67 66 65 64 63 63 62 61 60 60
19 19 18 18 19 19 20 20 21 21 21 22 22 23 24 26 27 29 30 31 33 35 37 39 42 45 47 50 52 54 56 59 61 63 65 66 67 67 68 69 69 70 70 70 71 71 71 71 71 71 71 71 70 70 71 72 73 73 74 74 74 74 73 73 72 72 73 73 73 72 71 71 70 69 68 68 67 66 65 64 63 62 62 61 61
21 21 21 20 20 20 21 21 22 22 22 23 23 23 24 25 27 28 30 31 32 34 35 37 39 41 44 47 49 51 53 55 57 59 61 64 65 66 68 68 69 70 71 71 72 72 72 72 71 71 71 71 71 71 71 71 72 73 73 74 74 75 74 74 73 73 74 74 75 74 73 73 72 71 70 69 68 67 65 64 64 63 62 61 61
22 23 23 23 23 23 23 23 23 24 24 24 24 25 25 26 27 28 29 31 32 33 34 35 37 38 41 43 46 48 51 53 54 56 57 59 62 64 65 67 68 69 70 71 71 72 72 72 72 72 72 72 72 72 72 72 72 73 73 74 74 75 75 75 74 74 75 75 75 75 74 74 73 71 70 69 68 67 65 64 63 63 62 61 61
20 22 24 25 25 26 26 25 25 25 26 26 26 26 26 27 27 28 29 30 31 32 33 34 35 37 39 41 43 45 47 50 52 54 55 57 58 60 62 63 65 67 68 69 70 71 72 72 72 72 73 73 73 73 73 73 73 73 74 74 74 75 75 75 75 75 75 76 76 75 75 74 73 71 69 67 66 65 64 63 63 62 62 61 61
18 20 22 24 26 27 28 28 28 28 27 28 28 28 28 28 29 29 30 30 31 32 33 34 35 36 38 39 41 43 45 47 49 51 53 54 56 58 59 60 61 63 64 66 68 69 70 71 71 72 72 73 73 73 74 74 74 74 75 75 75 75 75 75 75 75 75 75 75 75 74 73 73 71 69 67 65 64 63 63 63 62 62 62 62
18 19 20 21 24 27 29 30 30 30 30 29 29 29 30 30 30 30 30 30 31 31 32 33 34 36 37 38 40 41 43 45 46 48 50 52 53 55 57 58 59 60 61 62 63 65 66 67 69 70 70 71 72 73 73 74 74 74 75 75 75 75 75 75 75 75 74 74 74 74 73 72 71 70 68 67 65 64 64 64 64 64 64 64 64
20 20 20 21 22 24 27 30 31 32 31 31 31 31 31 31 31 31 31 31 31 32 32 33 34 35 36 37 38 40 41 43 44 46 47 49 50 52 53 55 56 57 58 59 60 61 62 63 64 65 67 68 69 70 71 72 72 73 74 74 75 75 75 75 75 74 74 73 72 72 72 71 71 70 69 67 66 65 65 64 65 65 65 65 65
21 22 22 23 23 24 25 27 30 32 33 33 33 33 32 33 33 33 33 32 32 33 33 33 34 35 36 36 37 39 40 41 42 43 44 46 48 49 51 52 54 55 56 57 58 59 59 60 61 61 62 63 65 66 67 68 69 70 71 71 72 72 73 74 74 73 73 72 71 71 71 70 70 70 70 69 68 68 67 67 67 67 68 68 68
23 24 24 25 25 26 26 26 28 30 32 33 35 35 35 34 34 34 34 34 34 34 34 34 35 35 36 36 37 38 39 40 40 41 42 44 45 47 48 50 51 52 53 54 55 56 57 57 58 58 59 60 60 61 62 63 64 65 66 67 68 69 69 70 71 71 71 70 69 69 69 69 69 69 69 69 69 69 68 69 69 70 71 71 71
24 25 26 26 26 27 28 28 28 28 29 31 32 34 35 36 36 36 35 35 35 35 35 35 36 36 36 37 37 38 39 39 40 40 41 42 43 44 46 47 48 49 50 52 53 53 54 55 55 56 56 56 57 58 58 59 60 61 62 63 64 65 65 66 67 68 68 68 67 67 67 68 68 68 68 68 68 68 68 68 68 69 70 70 71
24 25 26 28 27 27 28 29 29 29 29 29 30 31 32 34 35 37 37 37 36 36 36 36 36 36 37 37 38 39 39 39 40 40 40 41 42 43 44 45 45 47 48 49 50 51 52 53 53 54 54 54 55 55 56 56 57 58 59 59 60 61 62 63 64 64 65 65 64 65 65 66 66 67 67 67 67 67 66 66 66 65 65 65 65
26 26 26 28 29 28 28 28 28 28 29 30 30 30 30 31 32 34 35 37 37 38 38 38 38 38 38 39 39 39 40 40 41 40 40 41 41 42 43 44 44 45 46 47 48 49 50 51 52 52 52 52 53 53 54 54 55 55 56 57 57 58 59 59 60 61 61 62 62 62 63 63 64 64 64 64 65 65 64 64 62 61 61 61 61
28 27 27 28 28 28 29 28 28 27 28 29 30 30 31 31 32 32 33 34 36 38 39 40 41 41 40 40 41 41 41 42 43 42 42 42 42 43 43 44 44 45 45 45 46 46 47 48 49 51 51 51 52 52 53 53 53 54 54 54 55 56 56 57 57 58 58 59 59 60 60 61 61 61 61 61 61 61 61 60 59 58 57 56 56
30 30 29 29 28 28 29 30 30 30 29 28 28 28 30 31 32 33 34 34 35 36 38 40 42 43 43 43 43 43 43 44 44 44 44 44 44 44 45 45 45 45 45 45 45 45 46 46 47 48 48 49 50 51 51 51 52 52 52 52 53 53 54 54 54 55 55 56 56 56 57 57 57 57 57 57 57 56 56 55 54 53 53 52 51
32 32 32 32 31 30 31 32 33 33 33 31 29 28 29 31 32 34 35 36 37 37 37 38 40 41 43 44 44 45 45 46 46 46 45 45 45 45 46 46 46 46 46 46 46 45 46 46 46 47 47 47 48 48 49 50 50 50 51 51 51 52 52 52 52 52 53 53 53 52 53 53 53 53 53 53 52 52 52 51 50 50 50 49 48
33 34 35 36 35 34 33 33 34 35 36 36 34 32 31 31 32 33 34 35 36 37 38 39 39 40 40 41 43 44 46 47 47 48 47 47 47 46 47 47 48 47 47 47 46 46 47 46 46 47 47 47 47 48 48 49 49 49 50 50 51 51 52 52 51 51 51 51 50 50 50 49 49 49 49 49 49 49 49 49 48 48 48 47 46
35 36 37 38 38 38 37 36 36 37 37 38 38 37 35 34 34 34 34 34 34 36 37 38 39 40 40 40 41 42 43 45 46 48 48 49 48 48 48 49 49 48 48 47 47 47 48 48 48 49 49 48 48 49 49 49 49 49 50 50 50 51 51 51 51 51 51 50 50 49 48 48 47 47 47 46 46 46 46 46 46 46 46 46 45
37 37 38 39 40 41 41 40 40 39 39 39 39 40 40 39 38 37 36 36 35 35 36 37 38 40 41 42 42 42 43 44 45 46 47 48 49 49 49 50 50 50 49 48 48 48 48 49 49 50 51 51 50 51 51 51 50 50 51 51 51 51 51 51 51 50 50 50 50 49 49 48 47 47 46 45 45 44 44 44 44 44 44 44 44
39 39 39 40 40 42 43 43 43 42 41 41 41 41 42 43 43 42 41 40 39 38 37 37 38 39 40 41 42 43 44 45 45 46 46 47 48 48 49 49 50 51 52 52 51 50 50 50 50 51 52 52 52 52 53 53 52 52 52 52 52 51 52 52 51 51 51 51 51 50 50 49 49 48 47 46 45 44 44 44 43 44 44 44 43
41 41 41 41 41 42 43 44 45 44 44 43 43 43 43 44 45 45 45 44 43 42 41 40 40 39 39 40 41 43 44 45 46 46 47 47 48 48 49 49 49 49 51 53 54 54 53 53 53 52 53 53 53 52 53 54 53 53 53 53 53 53 53 53 53 53 53 52 52 52 51 51 51 50 49 48 47 46 45 45 44 45 45 44 44
44 44 44 44 43 43 43 44 45 46 46 46 45 45 45 45 45 46 47 47 47 46 45 44 43 42 41 41 40 41 42 44 46 46 47 48 48 49 50 50 49 49 49 50 52 55 56 57 56 56 56 56 55 54 54 54 54 54 54 55 55 55 55 55 55 55 55 54 53 53 52 52 52 51 50 49 49 48 47 46 46 46 46 46 46
47 47 47 47 47 45 44 45 45 46 47 47 47 47 47 47 47 47 48 49 49 49 48 47 46 45 44 43 42 42 42 43 45 45 46 48 48 49 50 50 51 51 51 50 51 52 54 56 58 58 58 58 58 57 56 56 56 55 55 55 56 56 57 57 57 57 56 56 55 55 55 55 54 53 52 51 51 50 50 49 49 49 49 49 48
51 51 51 50 50 49 48 47 47 47 48 48 48 49 49 49 49 49 49 50 50 51 51 50 49 48 47 46 46 45 44 44 45 45 46 47 48 49 49 50 51 52 53 53 53 53 53 54 56 57 58 58 59 59 59 59 58 58 57 57 57 57 57 57 57 57 57 57 57 57 57 57 56 55 54 53 53 52 52 51 51 52 51 51 51
55 55 54 54 54 53 52 51 51 50 50 49 49 50 51 51 52 52 51 51 52 52 53 53 52 51 50 49 48 48 47 47 47 47 47 48 48 49 49 50 51 52 53 54 55 55 55 55 55 55 56 56 57 58 59 59 59 60 60 60 59 59 58 57 56 57 58 59 59 59 59 59 58 57 56 55 54 54 54 54 54 54 54 54 53
59 58 58 58 58 57 57 56 55 54 53 53 52 52 52 53 53 53 53 53 53 54 54 54 54 54 53 52 51 51 50 50 50 50 50 50 50 50 51 51 51 52 53 54 55 56 56 56 56 56 56 56 56 57 58 58 58 58 59 60 61 61 60 59 58 58 59 59 60 60 60 59 59 58 57 56 56 57 57 57 56 56 56 56 56
62 61 61 61 61 61 61 60 59 58 57 57 56 55 55 55 55 56 56 56 55 56 56 56 56 56 55 55 54 54 53 53 53 53 52 53 53 53 53 53 53 53 54 54 55 56 56 57 57 57 57 56 57 58 58 58 57 57 58 59 59 60 60 60 61 62 62 62 62 62 60 59 59 59 58 58 58 59 60 60 59 58 58 58 57
64 64 64 64 63 63 64 64 64 63 62 61 60 59 59 59 59 59 59 58 58 58 58 57 57 57 58 57 57 57 56 56 56 56 56 55 55 55 55 55 55 56 56 56 56 56 56 57 58 58 58 58 58 58 59 58 58 58 59 58 57 57 57 59 60 62 63 64 65 64 62 60 60 59 58 58 59 60 61 61 60 60 60 60 60
64 65 66 66 66 65 65 66 67 67 66 65 65 64 63 63 62 62 62 62 62 61 60 60 60 60 61 61 61 61 60 60 59 59 59 59 59 59 58 58 58 58 58 59 59 58 58 58 58 59 59 60 60 60 60 60 60 61 60 58 57 58 57 57 59 60 61 62 63 63 62 63 63 62 60 60 60 60 61 61 60 60 61 61 62
65 65 66 67 68 68 68 68 68 69 69 69 69 68 67 67 66 66 66 66 66 65 65 64 64 64 64 65 65 65 64 63 63 63 63 62 62 62 62 62 61 61 61 61 62 61 61 60 60 59 60 60 60 61 61 62 62 62 61 60 59 59 58 58 61 61 60 59 60 60 61 62 63 63 62 62 63 62 62 62 61 61 60 61 62
68 67 68 68 68 69 69 70 70 71 71 72 72 72 71 71 70 70 69 69 69 69 69 69 69 69 69 68 68 68 68 67 66 66 66 66 66 66 65 65 65 65 65 64 64 64 64 63 63 63 62 61 61 62 62 62 62 63 63 62 61 60 59 62 64 62 60 59 59 60 60 60 60 61 61 62 63 63 64 64 64 63 62 61 61
71 71 71 70 70 70 71 71 72 73 73 74 75 75 75 75 74 74 74 73 73 73 73 73 73 73 73 73 72 71 71 71 70 69 69 69 69 69 69 69 69 68 68 68 68 68 67 66 66 66 66 65 65 65 64 64 64 66 65 63 62 61 62 64 65 63 62 62 61 61 61 60 60 60 60 61 62 62 63 64 64 64 63 63 62
73 74 75 75 74 73 73 73 73 74 75 76 76 78 78 78 78 78 78 77 77 77 77 76 77 77 77 77 76 76 75 74 73 73 72 72 72 72 73 73 73 72 72 71 71 71 71 70 70 69 68 68 68 67 67 67 67 67 67 66 65 64 64 65 66 65 65 64 64 64 64 63 62 62 62 62 61 61 62 62 62 61 62 62 62
72 75 77 78 79 78 77 77 76 76 77 77 78 79 80 81 82 82 82 81 81 81 81 81 81 81 81 81 81 80 80 79 78 77 76 75 75 75 75 75 76 75 75 75 74 74 74 74 73 72 71 71 70 70 70 71 70 69 69 69 68 67 66 66 67 67 66 66 66 67 66 66 65 64 64 63 63 62 62 61 61 60 60 61 61
74 75 77 79 81 82 82 81 80 80 80 80 80 81 81 83 84 85 86 86 86 85 85 85 85 85 85 85 85 85 84 83 82 81 80 79 79 78 78 78 78 78 78 78 78 77 77 77 77 77 75 74 74 73 73 74 73 72 72 72 71 70 69 68 68 68 68 68 68 69 68 68 67 66 66 65 64 63 62 61 61 61 61 62 63
79 79 79 80 81 83 85 85 85 84 83 83 83 83 84 84 85 86 88 89 90 90 90 90 89 89 89 89 89 89 88 88 87 86 85 83 82 82 81 81 81 81 81 81 81 81 80 80 80 80 80 79 78 77 76 76 76 75 75 75 74 73 72 71 70 70 70 70 70 70 71 70 68 67 67 66 65 63 63 63 62 62 62 63 64
85 85 83 82 82 84 86 88 89 89 88 87 86 85 85 86 86 87 89 90 92 93 94 94 94 93 93 93 93 93 92 92 91 91 90 88 87 86 85 85 85 85 84 84 84 84 83 83 83 83 83 83 82 81 80 80 80 80 79 78 78 77 76 75 74 74 74 73 72 72 73 73 71 70 70 68 67 66 65 65 65 64 64 65 65
87 88 88 87 86 85 87 89 91 92 93 93 92 91 89 88 88 89 90 91 93 94 95 97 98 98 98 97 97 97 97 96 96 95 94 94 93 92 90 89 88 88 88 88 88 87 87 86 86 86 86 86 86 85 84 84 83 83 83 83 82 81 80 79 79 78 78 76 76 75 76 76 75 74 74 73 71 70 68 68 68 68 68 68 68
Wind_Direction
216 216 216 218 220 222 224 225 226 226 227 226 226 225 225 225 226 226 227 228 228 228 226 225 224 224 224 224 225 226 226 227 228 228 229 230 232 233 234 236 237 239 240 241 242 244 244 245 245 245 246 246 246 247 247 248 249 249 250 251 251 253 254 255 255 256 257 258 259 260 262 263 265 266 268 269 271 272 273 274 275 276 276 277 278
217 217 216 217 218 220 222 223 225 227 227 227 227 227 227 227 227 227 227 229 230 230 230 229 228 227 227 226 226 227 227 228 229 229 230 231 232 233 234 235 237 239 240 242 244 245 245 245 246 246 246 247 247 248 248 249 250 251 252 252 253 254 255 256 257 258 258 259 261 262 263 265 266 268 270 271 272 274 274 275 276 276 277 278 278
219 218 218 217 218 219 220 222 223 225 227 228 228 228 228 228 228 228 228 228 230 231 232 232 231 231 230 229 229 229 229 229 230 230 231 231 233 234 235 236 237 239 240 242 244 245 246 246 246 247 247 248 248 249 250 251 251 252 252 253 254 255 256 257 258 259 260 261 262 264 265 267 269 270 272 273 274 275 275 276 276 277 277 278 279
218 218 218 218 218 218 220 221 222 224 225 227 229 229 230 230 230 230 230 229 230 231 232 233 234 234 233 233 232 232 231 231 231 231 232 232 233 234 236 237 238 239 240 241 243 244 246 247 247 248 248 249 249 250 251 252 253 253 253 254 255 256 257 258 259 260 261 263 264 266 267 269 270 272 273 275 276 277 277 277 277 277 278 279 279
222 220 217 217 217 218 219 221 222 223 224 226 227 229 230 231 231 231 232 232 231 231 232 233 234 235 235 235 235 234 234 233 233 233 233 233 234 235 236 237 238 239 240 241 243 244 245 246 247 248 249 250 250 252 252 253 254 254 255 255 256 257 257 259 260 261 262 264 265 267 268 270 271 272 274 275 276 277 277 278 278 278 279 279 279
227 225 222 219 218 217 218 220 222 223 224 225 226 227 229 230 231 232 233 233 233 233 232 232 233 234 235 236 237 237 236 236 236 236 235 235 235 236 236 237 238 240 241 242 243 244 245 246 247 248 249 250 251 252 253 254 254 255 256 256 257 258 258 259 261 262 263 264 266 267 268 270 271 272 273 275 276 276 277 277 278 279 279 280 280
235 232 229 225 222 219 218 219 220 222 224 225 226 226 227 229 230 232 233 234 234 234 234 234 234 234 235 236 237 237 238 238 238 238 238 238 238 238 238 238 239 240 241 242 243 244 245 245 246 248 249 250 251 252 253 254 255 256 256 257 258 259 259 260 261 262 264 265 266 267 268 269 270 272 274 275 276 276 277 277 278 279 279 280 280
245 240 236 232 228 225 222 220 219 220 223 224 226 226 227 227 228 230 231 233 234 235 235 235 236 236 236 236 236 237 238 239 240 240 240 240 240 241 241 240 241 241 242 243 244 245 246 246 247 248 248 250 251 252 253 254 255 256 257 258 258 259 260 261 262 263 264 265 266 266 267 268 270 272 274 275 276 276 277 277 278 278 279 280 280
256 251 245 239 235 232 228 225 223 221 221 222 224 226 227 228 228 229 230 231 233 234 235 236 236 236 237 237 237 237 238 239 239 240 241 242 242 242 243 243 243 243 244 245 246 246 247 248 248 249 249 250 251 252 253 254 255 256 257 258 258 259 260 261 262 263 264 264 265 265 266 268 271 273 274 275 275 276 277 277 277 278 278 278 279
262 260 255 249 244 239 235 231 229 226 223 222 222 224 226 228 229 229 229 230 231 233 234 235 236 237 237 238 238 239 239 239 240 240 241 242 242 243 244 244 244 245 245 246 247 247 248 249 249 250 251 251 252 252 253 254 255 256 257 257 258 259 259 260 261 262 263 263 264 265 266 269 271 273 274 275 275 275 276 276 276 277 277 277 277
263 263 263 259 253 248 243 238 235 232 229 227 224 223 224 225 227 229 230 230 231 232 233 234 235 236 237 238 238 239 240 240 240 241 241 242 242 243 244 244 245 245 246 246 247 248 249 250 251 252 252 253 253 253 254 254 255 256 256 257 258 258 259 260 261 262 263 263 263 265 267 269 271 273 273 274 274 275 275 275 275 275 275 275 276
262 261 263 264 261 256 251 247 242 238 236 233 230 228 226 225 225 227 229 231 232 232 233 234 235 236 237 238 238 239 240 240 241 241 242 242 243 243 244 244 245 245 246 246 247 248 249 250 251 252 253 254 254 254 254 255 255 256 257 258 258 259 259 260 261 262 262 263 263 265 267 269 271 272 273 273 274 274 274 274 274 274 274 274 274
256 258 258 261 263 261 257 254 250 246 242 239 237 234 232 230 228 227 228 229 231 232 233 234 235 235 236 237 238 239 240 241 241 242 242 243 243 244 244 244 245 246 246 246 247 248 249 250 251 252 253 254 254 254 255 255 255 256 257 258 258 259 260 260 261 262 262 263 264 265 267 269 270 271 272 272 273 273 273 273 273 273 273 273 273
245 250 252 255 259 261 261 259 255 252 249 246 242 240 238 236 234 232 231 230 230 231 233 234 235 236 236 237 238 239 240 241 241 242 242 243 243 244 244 245 245 246 246 247 247 248 249 250 251 252 253 254 254 255 255 255 255 256 257 257 258 259 260 261 261 262 262 263 264 265 267 268 269 270 270 271 271 272 272 272 272 272 272 272 272
239 242 244 246 250 254 258 258 258 256 253 251 248 245 242 240 238 237 236 234 233 232 233 234 235 236 236 237 238 238 239 240 241 242 243 244 244 244 245 245 246 246 247 247 248 248 249 250 251 252 252 253 254 254 255 255 255 256 256 257 258 258 259 260 261 262 263 263 264 265 266 267 268 268 269 270 270 271 271 271 271 271 271 271 271
240 239 240 240 241 243 249 253 255 255 254 253 251 249 246 243 241 239 239 238 237 235 235 235 235 236 237 237 238 238 239 240 241 241 243 244 244 245 246 246 246 247 247 248 248 249 250 250 251 252 252 253 254 254 255 255 255 256 256 257 257 258 259 259 260 261 263 264 265 265 266 267 267 268 268 269 269 269 269 270 270 270 270 270 271
244 242 242 242 240 238 238 242 246 250 251 251 250 249 247 245 242 240 239 239 238 238 238 237 237 237 238 238 238 239 240 240 241 241 242 243 244 245 246 246 247 248 248 249 249 250 250 251 252 252 253 253 254 254 255 255 255 256 256 257 257 258 258 259 260 261 262 263 264 265 265 266 266 267 267 268 268 268 268 268 268 269 269 269 269
250 246 244 243 243 241 238 236 237 240 244 247 248 247 246 245 244 242 240 239 239 239 239 239 239 239 239 239 239 239 240 241 241 241 242 242 243 244 245 246 247 247 248 249 250 251 251 252 252 253 253 254 254 255 255 256 256 257 257 257 257 258 259 259 260 260 261 262 263 263 264 265 265 265 266 266 266 267 267 267 266 266 267 267 267
257 252 249 247 244 243 242 240 237 236 237 240 244 246 247 246 246 245 244 242 241 240 240 240 240 240 240 240 240 240 240 241 242 242 242 243 243 244 244 245 245 246 247 248 249 250 251 252 252 253 253 254 255 255 256 256 257 257 257 258 258 259 259 260 260 260 261 262 262 263 264 265 265 265 265 265 265 265 265 265 265 264 265 265 265
268 260 255 252 248 244 243 243 242 240 238 238 240 242 245 247 248 248 247 247 246 244 243 242 242 242 242 242 242 242 242 242 242 243 243 243 244 245 245 246 246 246 247 247 248 249 250 251 251 252 253 253 254 255 255 256 257 257 258 258 258 259 259 260 260 260 261 262 262 263 263 264 264 265 265 264 264 263 263 263 263 263 264 264 265
275 270 263 259 256 251 247 244 243 243 243 242 241 241 243 246 248 249 250 250 250 249 248 247 247 246 246 246 245 245 244 243 243 244 244 244 245 245 246 246 247 247 248 248 248 249 249 250 250 251 252 252 253 254 254 255 256 257 257 258 258 259 259 259 259 260 260 261 261 262 263 263 263 263 263 262 261 261 261 261 262 262 263 263 264
274 274 271 267 263 260 256 252 248 246 245 245 244 243 243 244 246 248 249 250 251 251 251 251 251 250 250 249 248 248 247 246 246 245 245 246 246 246 246 246 247 247 248 248 249 249 249 250 250 250 251 251 252 253 253 254 255 255 256 257 258 258 259 259 259 260 260 260 260 261 262 262 262 263 262 262 261 260 260 259 259 260 261 262 262
274 274 273 272 269 267 264 261 258 254 250 248 247 247 245 245 245 246 247 248 249 250 251 251 251 252 252 252 251 250 249 249 249 248 248 248 247 247 247 247 247 247 247 248 248 249 249 250 250 250 251 251 251 252 252 253 253 254 255 255 256 257 258 258 259 259 260 260 260 260 261 261 262 262 262 262 262 262 261 260 260 260 261 261 262
278 277 276 275 273 272 271 269 267 265 261 257 253 252 251 249 248 247 246 247 247 248 248 248 249 250 251 251 251 250 250 250 250 250 250 249 249 249 249 248 248 248 247 247 248 248 249 249 250 250 251 251 251 252 252 252 253 253 253 254 255 255 256 257 258 259 260 260 260 260 260 260 261 261 262 263 263 263 263 263 263 262 263 263 263
281 282 282 282 279 278 277 276 275 274 273 270 265 261 257 255 253 251 249 248 247 247 246 246 246 246 247 247 248 249 250 250 250 250 250 250 250 250 250 250 249 249 248 248 248 248 249 249 249 249 250 250 250 251 251 251 252 252 253 253 254 254 255 256 257 258 259 260 260 260 260 260 260 261 261 262 263 264 264 264 264 263 264 264 264
284 285 287 288 288 287 285 283 282 282 280 278 276 272 268 264 261 258 255 252 250 249 247 246 246 244 244 243 244 245 247 248 248 248 248 248 249 249 250 250 250 250 250 250 250 250 249 249 249 249 249 249 249 249 250 250 250 251 251 252 253 253 254 255 256 257 258 258 259 259 259 260 260 260 261 261 261 262 263 263 263 263 263 264 264
288 288 287 288 290 291 289 286 284 283 281 280 278 277 275 272 269 266 263 259 255 252 249 248 247 246 245 244 243 244 244 245 246 246 246 246 247 247 248 250 250 251 251 251 251 251 251 251 250 249 249 248 248 248 248 248 248 249 249 250 250 251 252 253 254 255 255 256 257 257 258 258 259 260 260 260 260 261 261 262 262 262 262 262 263
287 288 287 286 286 286 285 284 281 279 276 275 274 275 274 272 270 269 266 264 261 257 253 251 250 249 248 247 246 246 246 246 246 246 245 245 246 247 248 248 249 250 251 252 252 252 252 251 250 250 250 249 249 248 248 247 247 248 248 248 248 249 250 251 252 253 254 254 255 256 257 257 258 258 259 259 259 260 260 260 261 261 261 261 262
287 287 286 284 282 281 280 280 280 280 278 276 273 272 272 270 269 268 267 266 265 263 261 258 256 254 252 251 250 250 249 249 248 247 246 245 245 247 248 249 249 249 250 251 252 252 252 251 250 250 249 248 248 248 248 248 248 248 248 248 248 248 249 249 250 251 252 253 253 254 255 256 257 257 258 258 259 259 259 260 260 260 260 260 260
285 285 284 283 282 281 280 280 280 280 281 281 279 275 272 271 270 269 269 268 268 268 266 265 263 262 260 257 256 254 253 253 252 250 249 248 247 247 248 249 248 248 249 250 250 251 251 250 250 250 249 248 247 247 247 247 247 247 248 248 248 249 249 249 249 249 250 251 251 252 253 254 255 256 256 257 258 258 258 258 259 259 259 258 257
282 282 282 283 283 283 282 281 280 279 279 280 280 279 276 273 271 270 269 269 269 269 268 268 267 266 265 263 261 259 258 257 256 254 253 251 250 249 249 250 249 248 248 249 249 249 250 249 249 249 248 247 246 246 247 247 247 247 248 248 248 248 249 249 249 249 249 250 250 250 251 251 252 253 254 254 255 256 256 257 257 257 257 257 256
279 279 280 281 282 282 282 281 280 279 278 278 278 279 279 277 274 272 270 269 268 268 268 268 268 267 266 264 263 262 261 260 260 259 257 255 253 252 251 252 252 251 250 249 248 248 249 249 249 249 249 247 246 247 247 247 247 247 248 248 248 249 249 249 249 249 249 249 250 249 249 250 250 250 251 251 252 253 254 254 255 255 255 256 256
276 276 277 278 279 280 280 280 280 280 279 278 278 277 278 278 277 276 274 272 270 268 268 268 267 266 266 265 265 263 262 261 261 261 260 259 257 255 253 253 254 254 253 251 250 249 249 250 249 249 250 249 248 247 248 247 247 247 248 249 249 250 250 250 250 250 250 250 250 250 250 250 250 250 250 250 251 251 252 253 253 254 254 255 255
275 275 275 275 275 277 278 279 280 280 280 279 278 277 277 277 278 277 276 275 273 271 269 267 267 266 265 265 265 264 264 263 262 261 261 261 260 259 257 255 255 255 254 254 253 252 251 251 251 250 251 251 250 249 249 249 248 247 247 248 249 249 250 250 250 250 250 250 251 251 251 251 251 251 251 251 251 251 251 252 252 253 253 253 254
274 274 274 274 273 274 275 276 277 279 279 278 277 276 275 275 276 276 276 275 274 273 271 269 267 266 265 264 264 264 264 264 264 263 263 262 261 261 260 258 257 256 256 255 254 254 253 253 253 253 253 253 253 251 251 252 251 249 248 249 248 248 248 249 249 250 250 251 251 252 252 252 252 253 253 253 252 252 252 252 252 252 252 252 252
273 273 273 274 274 273 273 273 273 274 275 276 276 276 275 274 274 274 275 275 274 273 272 271 269 267 265 263 262 262 263 263 264 264 264 264 263 262 262 261 259 258 257 256 256 255 255 255 255 255 255 256 256 255 254 254 254 253 252 251 251 250 249 249 249 249 250 250 251 251 252 252 252 253 253 253 253 253 253 252 252 252 252 251 251
273 272 272 272 273 274 273 272 271 270 271 272 273 275 275 275 274 274 274 274 274 274 273 272 271 270 268 265 263 262 261 262 262 263 263 264 264 263 263 262 261 260 259 258 258 257 257 256 256 256 256 257 257 257 256 256 256 256 255 254 254 254 253 253 252 252 252 251 250 250 251 251 251 251 252 253 253 254 253 252 252 251 251 251 250
273 272 271 271 271 272 272 272 271 270 270 270 270 272 273 274 274 274 274 273 274 274 274 273 272 271 270 269 267 265 264 262 262 261 261 262 263 263 263 263 263 262 262 261 260 260 259 259 259 259 258 258 258 258 258 257 257 257 257 257 257 257 257 257 257 256 255 254 253 251 251 250 251 251 251 252 253 253 253 253 252 251 251 251 250
273 273 272 271 270 270 270 271 271 271 270 270 269 270 271 272 272 273 273 273 272 272 272 272 272 271 271 270 270 269 267 266 264 262 261 261 262 263 263 263 264 264 263 263 262 262 261 261 261 261 260 260 260 260 260 259 259 259 259 258 257 257 258 258 258 258 258 258 257 255 254 253 252 252 252 252 252 252 252 252 252 252 252 251 251
272 272 272 271 270 270 270 269 270 270 269 269 268 268 268 269 269 270 271 271 271 270 270 270 271 271 271 271 270 270 269 267 266 264 263 261 261 261 262 262 263 263 263 263 262 261 261 261 260 260 260 260 260 261 261 261 260 260 260 259 259 259 259 258 258 257 258 258 259 258 257 257 256 255 254 253 252 252 252 252 252 252 252 252 252
272 271 271 271 270 269 269 269 269 269 268 268 268 267 266 266 267 267 268 269 269 269 269 269 269 270 271 271 271 270 270 268 267 266 264 263 262 261 261 261 261 262 262 262 261 261 260 259 259 258 258 258 258 259 260 260 260 259 259 260 260 260 260 259 258 258 257 257 257 258 259 259 259 258 257 256 255 255 254 253 253 253 253 254 254
273 272 271 271 270 269 269 268 267 267 268 267 267 267 266 266 265 266 266 267 268 268 267 267 267 268 270 271 271 272 271 270 269 267 265 264 263 262 261 261 261 261 261 261 261 260 260 259 259 258 258 258 257 258 258 258 259 258 259 260 260 259 259 260 260 259 257 257 258 258 259 259 259 259 258 258 257 258 258 257 256 255 255 255 255
275 274 273 272 271 270 269 268 267 266 266 266 266 266 265 265 265 264 265 265 266 266 266 266 266 266 267 268 270 271 272 272 271 269 267 265 264 263 262 262 261 261 261 261 261 260 260 259 259 258 258 258 258 258 257 257 258 258 258 258 258 258 259 259 258 258 258 259 259 259 258 258 258 258 258 257 257 257 258 259 258 256 256 256 256
274 274 273 272 272 271 270 269 268 266 265 265 265 265 264 264 264 264 263 263 263 264 264 265 265 265 265 266 266 267 269 270 271 270 269 268 266 265 264 263 262 261 261 261 261 260 260 259 259 258 258 258 258 259 259 259 258 258 257 256 256 256 257 257 257 258 259 259 259 259 259 259 258 258 257 257 256 256 256 257 257 257 257 257 257
273 272 272 271 271 270 270 269 268 267 266 265 264 263 263 263 263 263 262 262 262 262 262 262 263 264 264 264 264 264 265 267 268 268 268 268 267 267 266 265 264 263 262 262 262 261 260 259 259 258 258 258 258 258 259 259 259 259 258 257 256 255 254 255 256 258 258 258 258 258 258 258 258 258 257 257 257 256 256 257 257 257 258 258 258
273 273 272 271 270 269 269 269 268 267 267 266 264 263 262 262 261 261 261 261 261 261 260 260 260 261 262 263 263 262 262 262 264 265 265 266 266 266 266 266 266 265 265 264 263 262 262 261 260 259 258 258 257 258 258 259 259 259 260 259 258 256 254 254 255 256 256 257 257 257 257 256 256 256 257 257 257 258 258 258 258 258 258 258 258
274 274 273 272 271 270 269 268 267 267 266 265 264 263 262 261 260 260 259 259 259 260 260 259 259 259 260 260 261 261 260 260 260 261 262 262 263 264 264 265 265 265 265 265 265 264 264 263 262 261 260 259 258 257 258 258 258 258 259 259 258 258 256 256 256 256 256 256 256 256 256 256 256 256 256 257 257 258 259 259 260 259 258 258 258
274 274 274 273 272 270 269 268 267 266 266 265 265 263 262 261 260 259 259 259 259 259 259 259 259 259 259 259 259 259 259 259 258 259 259 260 260 261 262 262 263 263 264 264 264 264 264 264 264 263 262 261 259 258 258 258 258 257 257 257 258 258 257 256 256 256 256 256 256 256 256 256 256 256 256 256 256 257 258 259 259 259 259 259 258
275 275 274 274 272 271 269 268 267 266 265 264 264 264 263 261 260 259 258 258 258 259 258 258 258 258 258 258 258 258 258 258 258 257 257 257 258 259 259 260 261 262 262 263 263 263 263 263 263 263 263 262 261 260 259 259 259 258 257 256 256 256 256 255 255 255 256 256 256 256 256 256 255 255 255 255 256 256 256 257 258 258 259 259 259
275 275 275 274 273 272 270 268 267 266 265 264 263 262 261 261 260 259 258 257 257 257 257 258 257 257 257 257 257 257 257 257 257 257 257 257 257 257 258 258 259 260 261 261 262 263 263 263 263 262 262 262 262 262 261 260 260 259 258 257 256 255 255 254 253 253 254 254 255 256 257 256 255 255 255 255 255 255 255 256 256 257 257 258 259
274 274 273 273 272 271 269 268 267 266 265 264 263 262 260 260 259 259 258 257 257 256 256 256 256 256 256 256 256 256 256 256 256 256 256 256 256 256 256 257 257 258 259 260 260 261 261 262 262 262 261 261 261 261 261 260 260 260 259 259 258 257 256 255 254 253 252 253 253 254 255 256 256 256 256 255 255 255 255 256 256 257 257 258 258
Height
10829 10830 10831 10833 10834 10836 10837 10839 10840 10842 10844 10846 10848 10850 10851 10853 10854 10856 10858 10859 10860 10861 10863 10864 10865 10866 10867 10869 10870 10872 10873 10875 10876 10878 10880 10882 10884 10885 10887 10888 10889 10891 10892 10893 10894 10895 10897 10898 10899 10899 10900 10901 10902 10903 10903 10904 10905 10906 10907 10907 10908 10908 10909 10909 10910 10911 10911 10912 10912 10913 10913 10913 10913 10914 10914 10915 10915 10915 10915 10915 10915 10915 10915 10915 10915
10828 10829 10829 10830 10832 10833 10834 10836 10837 10839 10841 10843 10845 10847 10849 10850 10852 10853 10855 10856 10857 10859 10860 10861 10862 10863 10864 10866 10867 10868 10870 10872 10873 10875 10877 10878 10880 10881 10883 10884 10885 10887 10888 10890 10891 10892 10893 10894 10895 10896 10897 10898 10899 10899 10900 10901 10902 10903 10903 10904 10905 10905 10905 10906 10907 10908 10908 10909 10909 10909 10909 10910 10910 10910 10911 10912 10912 10912 10912 10912 10912 10911 10911 10912 10912
10827 10827 10828 10829 10829 10830 10832 10833 10834 10836 10838 10839 10841 10843 10845 10847 10849 10850 10852 10853 10854 10856 10857 10858 10859 10861 10862 10863 10864 10865 10867 10869 10870 10872 10873 10875 10876 10877 10879 10880 10881 10883 10884 10886 10887 10888 10889 10890 10892 10893 10893 10894 10895 10896 10897 10898 10899 10900 10900 10900 10901 10902 10902 10903 10904 10905 10905 10905 10905 10905 10906 10906 10907 10907 10908 10908 10909 10909 10908 10908 10908 10908 10908 10908 10909
10826 10826 10827 10827 10828 10829 10829 10830 10832 10833 10834 10836 10838 10840 10842 10844 10846 10847 10849 10850 10851 10853 10854 10855 10857 10858 10859 10860 10861 10862 10864 10865 10867 10868 10869 10871 10872 10873 10875 10876 10877 10879 10880 10881 10882 10884 10885 10886 10887 10888 10889 10891 10892 10893 10893 10894 10895 10896 10896 10897 10897 10898 10898 10899 10900 10901 10901 10901 10901 10902 10902 10903 10904 10904 10905 10905 10905 10905 10905 10905 10905 10905 10905 10905 10905
10824 10825 10825 10826 10826 10827 10828 10828 10829 10830 10832 10833 10835 10837 10839 10840 10842 10844 10845 10847 10848 10850 10851 10852 10853 10855 10856 10857 10858 10860 10861 10862 10863 10864 10866 10867 10868 10870 10871 10872 10873 10874 10875 10877 10878 10879 10881 10882 10883 10884 10886 10887 10888 10889 10889 10890 10890 10891 10892 10892 10893 10894 10895 10896 10896 10897 10898 10898 10898 10898 10899 10900 10900 10900 10901 10902 10901 10901 10901 10901 10901 10901 10901 10902 10902
10822 10823 10824 10824 10825 10825 10826 10826 10827 10828 10829 10830 10832 10833 10835 10837 10838 10840 10842 10843 10845 10846 10848 10849 10850 10851 10852 10854 10855 10857 10858 10859 10860 10861 10862 10864 10865 10866 10867 10867 10868 10870 10871 10872 10873 10875 10876 10878 10879 10880 10881 10882 10884 10884 10885 10885 10886 10887 10888 10888 10889 10890 10891 10892 10892 10893 10893 10894 10895 10895 10896 10896 10896 10896 10898 10898 10898 10897 10898 10898 10897 10897 10897 10898 10898
10820 10821 10821 10822 10823 10823 10824 10824 10825 10825 10826 10827 10828 10830 10831 10833 10834 10836 10838 10839 10841 10842 10844 10845 10846 10847 10848 10850 10851 10853 10854 10855 10856 10858 10859 10860 10861 10862 10862 10863 10864 10865 10866 10868 10869 10871 10872 10874 10875 10876 10877 10878 10879 10880 10880 10881 10882 10883 10883 10884 10885 10886 10887 10888 10888 10888 10889 10890 10892 10892 10891 10891 10892 10892 10893 10894 10893 10893 10893 10893 10893 10893 10893 10893 10893
10817 10818 10819 10820 10821 10821 10822 10822 10822 10823 10823 10824 10825 10826 10828 10829 10830 10832 10833 10835 10836 10838 10839 10841 10842 10843 10845 10846 10847 10848 10849 10851 10852 10854 10855 10856 10857 10858 10858 10860 10861 10861 10862 10864 10865 10866 10868 10869 10871 10872 10873 10873 10874 10875 10876 10877 10877 10878 10879 10880 10881 10882 10883 10883 10883 10884 10885 10887 10888 10887 10887 10887 10887 10888 10889 10889 10889 10889 10889 10889 10888 10889 10888 10889 10889
10815 10816 10816 10817 10818 10818 10819 10820 10820 10820 10821 10821 10822 10823 10824 10825 10826 10827 10829 10830 10831 10833 10834 10836 10837 10839 10840 10841 10842 10844 10845 10846 10847 10849 10850 10851 10852 10853 10854 10856 10857 10858 10859 10860 10861 10862 10863 10865 10866 10867 10868 10869 10870 10871 10872 10872 10873 10874 10875 10876 10877 10878 10878 10878 10878 10879 10881 10883 10884 10883 10882 10883 10883 10884 10884 10884 10884 10884 10884 10884 10884 10884 10884 10884 10885
10813 10813 10814 10814 10815 10815 10816 10817 10817 10818 10818 10818 10819 10819 10820 10821 10822 10823 10824 10825 10827 10828 10829 10831 10832 10834 10835 10837 10838 10839 10840 10841 10842 10844 10845 10846 10847 10849 10850 10851 10852 10853 10854 10855 10856 10858 10859 10860 10861 10862 10863 10864 10865 10866 10867 10868 10869 10870 10870 10871 10872 10873 10874 10873 10873 10875 10877 10879 10879 10878 10878 10879 10879 10879 10880 10880 10880 10880 10880 10879 10879 10880 10880 10880 10880
10812 10812 10812 10812 10812 10812 10813 10813 10814 10815 10815 10815 10816 10816 10816 10817 10818 10819 10820 10821 10822 10823 10825 10826 10827 10829 10830 10832 10833 10834 10835 10836 10837 10839 10840 10841 10842 10844 10845 10846 10847 10848 10850 10851 10852 10853 10855 10856 10857 10858 10859 10860 10861 10862 10863 10864 10864 10865 10866 10867 10868 10869 10869 10868 10869 10870 10873 10874 10874 10874 10874 10875 10875 10875 10876 10876 10875 10875 10875 10875 10875 10875 10875 10875 10876
10811 10810 10810 10810 10810 10810 10810 10810 10811 10812 10812 10813 10813 10813 10813 10814 10814 10815 10816 10817 10818 10819 10820 10821 10823 10824 10826 10827 10828 10829 10830 10831 10832 10834 10835 10836 10837 10838 10839 10840 10842 10843 10844 10846 10847 10848 10849 10851 10852 10853 10854 10855 10856 10857 10858 10859 10860 10860 10861 10862 10863 10864 10864 10864 10864 10866 10868 10869 10869 10869 10870 10870 10871 10870 10871 10871 10871 10871 10871 10871 10870 10870 10870 10871 10871
10810 10809 10809 10809 10808 10808 10808 10808 10808 10809 10809 10810 10810 10810 10811 10811 10811 10812 10813 10813 10814 10815 10816 10817 10818 10819 10821 10822 10823 10825 10825 10826 10828 10829 10830 10831 10832 10833 10834 10835 10836 10837 10839 10840 10842 10843 10844 10845 10846 10847 10848 10849 10851 10852 10853 10854 10855 10855 10856 10857 10858 10859 10859 10859 10860 10861 10862 10863 10864 10865 10865 10866 10866 10866 10865 10866 10866 10866 10866 10866 10866 10866 10866 10866 10866
10809 10808 10808 10808 10807 10807 10807 10807 10807 10807 10807 10807 10808 10808 10808 10809 10809 10809 10809 10810 10810 10811 10812 10813 10814 10815 10816 10817 10818 10820 10821 10822 10823 10824 10825 10826 10827 10828 10829 10830 10831 10832 10833 10835 10836 10837 10838 10840 10841 10842 10843 10843 10845 10846 10847 10848 10849 10850 10851 10852 10853 10853 10853 10854 10855 10856 10857 10857 10858 10859 10860 10860 10861 10861 10860 10860 10861 10861 10861 10861 10861 10861 10861 10861 10861
10807 10806 10806 10806 10806 10805 10805 10805 10805 10805 10805 10805 10805 10805 10806 10806 10806 10806 10806 10807 10807 10808 10808 10809 10809 10810 10811 10812 10813 10814 10815 10817 10818 10819 10820 10821 10822 10823 10824 10825 10826 10827 10828 10830 10831 10832 10833 10834 10835 10836 10837 10838 10839 10840 10841 10842 10843 10844 10846 10847 10847 10847 10848 10849 10850 10851 10850 10851 10852 10854 10855 10855 10855 10856 10855 10855 10855 10855 10856 10856 10856 10856 10856 10855 10855
10805 10805 10804 10804 10804 10803 10803 10803 10803 10803 10803 10803 10802 10802 10803 10803 10803 10803 10803 10803 10804 10804 10805 10805 10806 10806 10807 10808 10808 10809 10810 10811 10812 10814 10815 10816 10817 10818 10819 10820 10822 10822 10823 10824 10825 10826 10828 10829 10830 10831 10832 10832 10833 10835 10836 10837 10838 10839 10840 10841 10841 10841 10843 10844 10845 10845 10845 10844 10845 10847 10849 10849 10850 10850 10850 10850 10850 10850 10850 10850 10850 10850 10850 10850 10850
10803 10803 10802 10802 10801 10801 10801 10801 10800 10800 10800 10800 10800 10800 10800 10800 10800 10800 10800 10800 10800 10801 10801 10801 10802 10802 10803 10803 10804 10805 10805 10806 10807 10808 10809 10810 10812 10813 10814 10815 10817 10818 10818 10819 10820 10821 10823 10824 10825 10826 10827 10827 10828 10829 10830 10831 10832 10833 10834 10835 10835 10836 10837 10839 10840 10840 10839 10839 10840 10841 10842 10843 10843 10844 10844 10844 10844 10844 10845 10845 10845 10845 10845 10845 10845
10800 10800 10800 10800 10799 10799 10798 10798 10797 10797 10797 10797 10797 10797 10797 10797 10797 10797 10797 10797 10798 10798 10798 10798 10798 10798 10798 10799 10799 10800 10800 10801 10802 10803 10804 10805 10806 10807 10808 10810 10811 10812 10813 10814 10815 10816 10818 10819 10820 10821 10822 10823 10823 10824 10825 10826 10826 10827 10828 10829 10830 10830 10832 10833 10834 10834 10833 10834 10834 10835 10836 10837 10837 10839 10839 10838 10838 10838 10839 10839 10840 10840 10840 10840 10840
10798 10798 10797 10797 10797 10796 10796 10795 10795 10794 10794 10794 10795 10795 10795 10795 10795 10795 10795 10795 10795 10795 10795 10795 10795 10795 10795 10795 10795 10796 10796 10797 10797 10798 10799 10800 10800 10801 10802 10804 10805 10806 10807 10809 10810 10811 10812 10813 10815 10816 10817 10817 10818 10819 10819 10820 10821 10822 10822 10823 10824 10825 10826 10827 10828 10828 10828 10828 10828 10829 10830 10830 10831 10832 10833 10833 10833 10833 10833 10834 10834 10835 10835 10835 10835
10795 10795 10795 10794 10793 10793 10793 10793 10793 10792 10792 10792 10793 10793 10793 10793 10793 10793 10793 10793 10793 10793 10793 10793 10793 10792 10792 10792 10792 10793 10793 10793 10793 10793 10794 10795 10796 10796 10797 10798 10799 10800 10802 10803 10803 10804 10805 10807 10808 10809 10811 10812 10812 10813 10814 10814 10815 10815 10816 10817 10818 10819 10820 10821 10821 10822 10822 10823 10822 10823 10824 10824 10825 10826 10827 10828 10828 10828 10828 10828 10829 10830 10830 10830 10830
10792 10792 10792 10792 10791 10790 10790 10790 10790 10790 10791 10791 10791 10791 10791 10791 10791 10792 10792 10792 10792 10791 10791 10791 10791 10791 10791 10790 10790 10790 10790 10790 10790 10790 10791 10791 10792 10792 10793 10794 10795 10795 10797 10797 10798 10799 10800 10801 10802 10803 10804 10805 10805 10806 10807 10808 10809 10809 10809 10810 10811 10812 10813 10814 10815 10815 10816 10817 10817 10817 10818 10818 10819 10820 10821 10822 10823 10823 10823 10823 10823 10824 10824 10824 10825
10790 10789 10789 10789 10789 10789 10788 10788 10788 10789 10789 10789 10789 10789 10789 10789 10789 10789 10790 10790 10790 10790 10790 10789 10789 10789 10789 10789 10788 10788 10787 10787 10787 10787 10787 10787 10788 10788 10789 10789 10790 10791 10792 10792 10793 10793 10794 10795 10796 10797 10798 10799 10799 10800 10801 10802 10802 10803 10803 10803 10804 10805 10806 10807 10807 10809 10810 10810 10811 10811 10812 10812 10813 10814 10815 10816 10817 10817 10818 10818 10818 10818 10819 10819 10819
10789 10788 10787 10787 10786 10786 10787 10787 10787 10787 10788 10788 10787 10787 10787 10787 10787 10787 10787 10788 10788 10788 10788 10788 10787 10787 10787 10787 10786 10785 10785 10785 10785 10785 10785 10785 10784 10784 10785 10785 10786 10787 10787 10787 10788 10788 10789 10790 10791 10792 10792 10793 10794 10794 10795 10796 10796 10796 10797 10797 10798 10799 10799 10800 10801 10802 10803 10804 10805 10805 10806 10806 10807 10808 10809 10809 10810 10811 10812 10812 10812 10812 10813 10813 10813
10787 10786 10785 10785 10785 10784 10785 10785 10785 10785 10785 10786 10786 10786 10785 10785 10785 10785 10785 10785 10786 10786 10786 10786 10785 10785 10785 10785 10784 10783 10783 10783 10783 10782 10782 10782 10782 10781 10782 10782 10782 10782 10783 10783 10783 10784 10785 10785 10786 10787 10787 10788 10788 10789 10789 10790 10790 10790 10791 10792 10792 10793 10793 10794 10795 10795 10796 10797 10798 10799 10800 10800 10801 10801 10802 10803 10803 10804 10805 10805 10806 10806 10806 10806 10807
10786 10785 10784 10783 10783 10783 10783 10783 10783 10783 10783 10783 10783 10783 10783 10783 10783 10783 10783 10783 10783 10783 10783 10783 10783 10783 10783 10782 10781 10781 10781 10780 10780 10780 10780 10780 10779 10779 10779 10779 10779 10779 10779 10779 10780 10780 10781 10781 10782 10782 10783 10783 10783 10784 10784 10785 10785 10785 10785 10786 10786 10787 10788 10789 10789 10790 10791 10791 10792 10793 10793 10794 10795 10795 10796 10797 10797 10797 10798 10798 10799 10799 10799 10799 10800
10785 10784 10783 10782 10781 10781 10781 10780 10781 10781 10781 10780 10780 10780 10780 10780 10779 10779 10779 10779 10779 10779 10779 10779 10779 10779 10778 10778 10778 10777 10777 10777 10777 10777 10777 10777 10777 10776 10776 10776 10776 10776 10776 10776 10776 10777 10777 10778 10778 10777 10778 10778 10778 10779 10779 10779 10779 10779 10780 10781 10781 10782 10783 10783 10784 10784 10785 10785 10786 10787 10787 10788 10788 10789 10790 10791 10791 10791 10792 10792 10792 10792 10793 10793 10793
10783 10783 10782 10781 10780 10779 10778 10777 10777 10777 10777 10777 10777 10777 10776 10776 10775 10775 10775 10775 10775 10774 10775 10775 10774 10774 10774 10774 10774 10773 10773 10773 10773 10773 10774 10774 10773 10773 10773 10772 10772 10773 10773 10773 10773 10774 10774 10774 10774 10773 10774 10774 10774 10774 10774 10774 10774 10774 10775 10775 10775 10776 10777 10778 10778 10778 10779 10779 10780 10781 10781 10782 10782 10783 10784 10785 10785 10785 10786 10786 10786 10787 10787 10788 10787
10780 10779 10779 10779 10778 10777 10775 10773 10772 10772 10772 10773 10773 10773 10773 10772 10771 10771 10770 10770 10770 10770 10770 10770 10770 10770 10770 10770 10770 10770 10769 10769 10768 10769 10770 10770 10769 10769 10769 10769 10769 10769 10769 10769 10770 10771 10771 10771 10770 10770 10771 10771 10770 10769 10769 10769 10770 10769 10770 10770 10770 10771 10771 10772 10772 10772 10773 10774 10774 10775 10775 10776 10777 10777 10778 10779 10779 10780 10780 10780 10781 10781 10782 10782 10782
10776 10776 10775 10774 10774 10774 10773 10772 10770 10768 10768 10768 10769 10769 10769 10768 10768 10767 10767 10766 10766 10766 10767 10766 10766 10766 10766 10767 10766 10766 10765 10764 10764 10765 10765 10765 10766 10765 10765 10765 10765 10765 10765 10765 10766 10767 10767 10767 10767 10766 10767 10767 10766 10765 10765 10765 10766 10765 10765 10765 10766 10766 10766 10767 10767 10767 10767 10768 10769 10769 10770 10771 10771 10772 10773 10773 10774 10775 10775 10775 10776 10776 10776 10777 10777
10772 10771 10770 10769 10769 10770 10770 10770 10769 10767 10765 10764 10764 10765 10765 10765 10764 10764 10764 10763 10763 10763 10762 10762 10762 10762 10762 10763 10762 10761 10760 10760 10760 10760 10760 10761 10761 10761 10760 10760 10760 10760 10761 10761 10762 10762 10762 10763 10762 10761 10762 10762 10762 10761 10760 10761 10761 10761 10761 10761 10761 10761 10761 10762 10763 10763 10762 10763 10764 10764 10765 10766 10766 10767 10767 10768 10769 10769 10770 10770 10771 10771 10771 10772 10772
10768 10767 10766 10765 10764 10764 10765 10765 10765 10764 10763 10761 10760 10760 10760 10761 10760 10760 10760 10759 10759 10759 10758 10758 10758 10757 10758 10758 10757 10757 10756 10755 10755 10755 10755 10756 10756 10756 10755 10755 10755 10755 10756 10756 10757 10757 10757 10757 10757 10756 10756 10757 10757 10756 10755 10756 10757 10756 10756 10756 10757 10757 10757 10757 10758 10759 10758 10758 10759 10760 10760 10761 10761 10762 10762 10763 10764 10764 10765 10765 10766 10766 10766 10766 10767
10764 10764 10763 10762 10761 10760 10759 10759 10759 10759 10760 10759 10758 10756 10755 10755 10755 10755 10755 10755 10755 10755 10754 10753 10753 10752 10752 10752 10752 10752 10751 10750 10750 10749 10750 10750 10751 10751 10751 10750 10750 10750 10751 10751 10751 10751 10751 10751 10751 10750 10750 10751 10751 10751 10751 10751 10752 10751 10751 10751 10752 10752 10752 10752 10753 10754 10754 10754 10754 10755 10755 10756 10756 10756 10757 10758 10759 10759 10760 10760 10761 10761 10761 10761 10762
10760 10759 10759 10758 10757 10756 10755 10754 10753 10754 10755 10755 10754 10753 10751 10750 10750 10750 10750 10750 10750 10750 10749 10749 10748 10748 10747 10746 10746 10746 10746 10745 10744 10744 10744 10744 10745 10745 10745 10745 10745 10745 10745 10745 10745 10745 10745 10744 10744 10744 10743 10744 10745 10745 10745 10745 10747 10747 10746 10746 10747 10747 10747 10747 10748 10748 10748 10748 10749 10749 10750 10750 10751 10751 10752 10753 10754 10754 10755 10755 10756 10756 10756 10757 10758
10755 10754 10754 10753 10753 10752 10751 10750 10749 10748 10749 10749 10749 10748 10747 10746 10745 10744 10744 10743 10743 10743 10743 10743 10743 10742 10742 10742 10741 10740 10740 10739 10739 10739 10738 10738 10739 10739 10739 10739 10739 10739 10739 10738 10738 10739 10739 10738 10738 10738 10737 10737 10739 10740 10740 10740 10741 10741 10741 10741 10741 10741 10741 10741 10742 10742 10742 10743 10743 10744 10745 10745 10745 10746 10747 10748 10748 10749 10750 10750 10751 10751 10751 10752 10753
10751 10749 10748 10748 10748 10748 10747 10746 10745 10744 10743 10743 10743 10743 10742 10741 10740 10739 10738 10737 10737 10737 10737 10737 10736 10736 10736 10736 10736 10735 10735 10734 10733 10733 10733 10733 10733 10733 10733 10733 10733 10732 10732 10732 10732 10732 10732 10732 10732 10732 10732 10731 10732 10734 10735 10734 10735 10736 10736 10736 10735 10735 10735 10735 10735 10736 10736 10737 10738 10738 10739 10739 10740 10741 10742 10743 10743 10744 10744 10745 10746 10745 10746 10746 10747
10745 10745 10743 10743 10742 10742 10742 10741 10740 10739 10738 10737 10737 10737 10737 10736 10735 10734 10733 10732 10731 10730 10730 10730 10730 10729 10729 10729 10729 10729 10729 10729 10728 10728 10727 10727 10726 10726 10726 10727 10727 10726 10726 10726 10726 10725 10725 10725 10725 10725 10726 10726 10726 10728 10729 10729 10729 10730 10731 10730 10730 10730 10730 10729 10730 10730 10731 10732 10732 10733 10733 10733 10734 10735 10737 10737 10738 10738 10739 10740 10740 10740 10740 10740 10741
10739 10739 10738 10737 10736 10736 10736 10735 10735 10734 10733 10732 10732 10731 10731 10730 10730 10729 10728 10727 10725 10725 10724 10724 10723 10723 10722 10722 10722 10723 10723 10723 10722 10722 10722 10721 10720 10720 10720 10720 10720 10719 10719 10719 10719 10719 10719 10719 10719 10719 10720 10720 10720 10721 10722 10722 10723 10724 10724 10724 10724 10724 10724 10725 10726 10726 10726 10726 10726 10727 10726 10727 10727 10729 10731 10732 10732 10733 10734 10734 10734 10734 10734 10734 10735
10733 10733 10732 10732 10731 10730 10730 10729 10729 10728 10727 10727 10726 10726 10725 10724 10724 10723 10723 10722 10720 10719 10718 10717 10717 10716 10716 10716 10716 10716 10716 10716 10716 10716 10716 10715 10714 10714 10713 10713 10713 10713 10713 10713 10712 10712 10712 10712 10713 10713 10714 10714 10714 10713 10714 10715 10716 10717 10717 10718 10718 10718 10719 10720 10721 10721 10720 10719 10720 10720 10720 10720 10721 10723 10725 10727 10727 10727 10727 10728 10728 10728 10728 10728 10729
10726 10726 10726 10725 10724 10723 10723 10723 10723 10722 10721 10720 10720 10719 10719 10718 10717 10717 10716 10716 10715 10714 10712 10711 10710 10710 10709 10709 10709 10709 10709 10709 10709 10708 10708 10708 10708 10707 10707 10707 10707 10707 10707 10706 10706 10706 10706 10706 10706 10706 10707 10707 10707 10706 10706 10708 10709 10710 10710 10710 10710 10711 10712 10714 10715 10714 10713 10712 10713 10713 10714 10715 10716 10718 10720 10721 10721 10721 10721 10721 10722 10722 10722 10723 10724
10719 10719 10718 10718 10717 10716 10716 10715 10715 10715 10715 10714 10712 10712 10711 10711 10710 10709 10709 10709 10708 10708 10707 10705 10704 10703 10703 10702 10702 10702 10702 10702 10701 10701 10700 10700 10700 10700 10700 10700 10700 10699 10699 10699 10699 10699 10699 10699 10699 10699 10699 10699 10699 10699 10699 10701 10703 10703 10702 10702 10703 10705 10707 10707 10706 10705 10706 10706 10705 10705 10707 10710 10711 10712 10714 10715 10714 10714 10713 10714 10715 10716 10717 10717 10718
10710 10710 10710 10710 10710 10710 10709 10708 10707 10707 10707 10706 10705 10704 10703 10703 10702 10701 10701 10701 10701 10700 10700 10699 10698 10697 10695 10695 10694 10694 10694 10694 10694 10693 10693 10692 10692 10692 10692 10692 10692 10691 10691 10691 10691 10692 10692 10692 10692 10692 10692 10692 10692 10692 10692 10693 10694 10694 10694 10695 10698 10700 10699 10698 10697 10697 10698 10697 10697 10698 10701 10703 10704 10705 10707 10708 10707 10707 10706 10708 10709 10710 10711 10712 10713
10701 10701 10701 10701 10701 10701 10701 10700 10699 10698 10698 10697 10697 10696 10695 10695 10694 10693 10693 10693 10693 10692 10692 10692 10691 10690 10689 10687 10687 10686 10687 10687 10686 10686 10685 10685 10684 10684 10684 10684 10684 10684 10683 10683 10683 10683 10684 10684 10684 10685 10685 10685 10685 10685 10685 10685 10685 10686 10687 10690 10691 10691 10691 10691 10690 10688 10688 10689 10691 10693 10695 10695 10695 10696 10699 10700 10700 10699 10700 10701 10703 10704 10704 10705 10706
10693 10692 10692 10692 10692 10692 10692 10691 10691 10690 10689 10689 10688 10687 10687 10686 10686 10685 10685 10684 10684 10684 10684 10683 10683 10682 10681 10680 10679 10678 10678 10678 10678 10678 10677 10677 10677 10676 10676 10676 10676 10675 10675 10675 10675 10675 10675 10676 10677 10677 10678 10678 10678 10678 10678 10678 10678 10678 10680 10683 10683 10683 10685 10684 10679 10679 10682 10684 10685 10686 10686 10686 10687 10688 10690 10691 10691 10692 10692 10692 10694 10696 10697 10699 10700
10685 10684 10683 10683 10682 10682 10682 10681 10681 10681 10681 10680 10679 10679 10678 10678 10677 10677 10676 10675 10675 10675 10674 10674 10673 10673 10673 10672 10671 10670 10669 10669 10669 10669 10668 10668 10668 10668 10667 10667 10667 10667 10667 10667 10666 10666 10667 10668 10668 10669 10670 10671 10671 10670 10670 10671 10671 10670 10671 10674 10675 10677 10678 10673 10670 10673 10677 10678 10677 10677 10678 10679 10680 10681 10681 10681 10682 10683 10684 10684 10685 10688 10690 10692 10693
10675 10675 10674 10674 10673 10673 10672 10672 10671 10671 10671 10671 10670 10670 10669 10668 10668 10667 10666 10666 10665 10665 10665 10664 10664 10663 10663 10662 10662 10662 10661 10660 10660 10659 10659 10658 10658 10658 10658 10658 10658 10658 10658 10658 10657 10657 10657 10658 10659 10660 10661 10662 10663 10662 10662 10663 10663 10661 10662 10666 10667 10669 10669 10664 10664 10668 10669 10669 10669 10669 10670 10671 10671 10672 10673 10673 10673 10675 10676 10677 10678 10681 10683 10684 10685
10666 10665 10664 10664 10664 10663 10663 10662 10661 10661 10660 10660 10660 10660 10659 10659 10658 10657 10656 10656 10655 10655 10655 10654 10654 10653 10652 10652 10651 10651 10651 10651 10651 10650 10650 10649 10649 10648 10648 10647 10648 10648 10648 10648 10648 10648 10648 10648 10649 10651 10652 10652 10653 10654 10654 10654 10654 10653 10654 10657 10657 10659 10660 10658 10658 10660 10660 10661 10662 10661 10661 10662 10663 10664 10664 10664 10666 10667 10668 10669 10672 10675 10676 10676 10676
10656 10655 10654 10654 10653 10653 10652 10652 10651 10650 10649 10649 10649 10648 10648 10648 10647 10647 10646 10645 10644 10644 10644 10643 10643 10643 10642 10641 10641 10640 10640 10640 10640 10640 10640 10640 10639 10638 10638 10638 10637 10638 10638 10638 10638 10638 10638 10638 10639 10641 10642 10642 10644 10646 10645 10643 10644 10646 10645 10646 10647 10649 10651 10652 10651 10652 10653 10653 10653 10652 10653 10653 10654 10656 10656 10657 10658 10660 10661 10662 10665 10667 10667 10667 10667
10646 10645 10643 10643 10642 10641 10641 10640 10640 10639 10638 10637 10637 10636 10636 10636 10636 10635 10634 10634 10633 10633 10633 10632 10632 10631 10631 10630 10630 10629 10629 10629 10629 10629 10629 10629 10629 10629 10628 10628 10627 10627 10627 10627 10627 10628 10628 10628 10628 10630 10631 10632 10633 10635 10636 10634 10635 10636 10635 10635 10637 10639 10641 10643 10643 10643 10644 10645 10644 10643 10644 10644 10647 10649 10648 10648 10650 10652 10654 10655 10656 10657 10658 10658 10658
10635 10634 10633 10631 10630 10629 10629 10628 10627 10626 10626 10625 10624 10623 10623 10623 10623 10623 10622 10622 10621 10621 10621 10620 10620 10619 10619 10618 10618 10618 10617 10617 10617 10617 10617 10618 10618 10618 10618 10617 10617 10617 10617 10616 10616 10617 10617 10617 10618 10618 10619 10620 10622 10624 10626 10625 10625 10625 10625 10625 10627 10628 10630 10632 10634 10634 10634 10636 10636 10635 10635 10636 10639 10640 10638 10640 10643 10645 10646 10647 10647 10648 10648 10648 10649
10622 10621 10621 10620 10618 10617 10616 10615 10614 10613 10613 10612 10611 10610 10609 10609 10609 10609 10609 10608 10608 10608 10607 10607 10607 10607 10606 10605 10605 10605 10605 10605 10605 10605 10605 10606 10606 10606 10606 10606 10606 10606 10606 10606 10605 10606 10606 10606 10607 10607 10608 10609 10610 10612 10614 10615 10614 10614 10614 10615 10616 10617 10618 10620 10623 10623 10623 10626 10628 10627 10625 10626 10630 10630 10629 10632 10634 10636 10638 10639 10639 10640 10640 10639 10639
10609 10608 10607 10607 10608 10606 10603 10601 10600 10599 10598 10597 10596 10596 10595 10595 10595 10595 10595 10594 10594 10594 10593 10593 10592 10592 10592 10592 10592 10591 10591 10592 10592 10593 10593 10593 10593 10594 10594 10594 10594 10594 10594 10594 10594 10594 10594 10595 10595 10596 10596 10597 10598 10600 10602 10603 10603 10603 10603 10603 10604 10605 10606 10609 10610 10610 10612 10615 10617 10618 10617 10615 10619 10621 10619 10621 10624 10627 10630 10631 10631 10631 10631 10631 10631